TimeEDT,TemperatureF,Dew PointF,Humidity,Sea Level PressureIn,VisibilityMPH,Wind Direction,Wind SpeedMPH,Gust SpeedMPH,PrecipitationIn,Events,Conditions,WindDirDegrees,DateUTC
12:15 AM,68.0,60.8,78,29.98,10.0,Calm,Calm,-,N/A,,Clear,0,2013-09-09 04:15:00
12:35 AM,68.0,62.6,83,29.99,7.0,Calm,Calm,-,N/A,,Clear,0,2013-09-09 04:35:00
12:55 AM,68.0,64.4,88,29.99,7.0,Calm,Calm,-,N/A,,Clear,0,2013-09-09 04:55:00
1:15 AM,68.0,64.4,88,29.99,7.0,Calm,Calm,-,N/A,,Clear,0,2013-09-09 05:15:00
1:35 AM,66.2,62.6,88,30.00,7.0,Calm,Calm,-,N/A,,Clear,0,2013-09-09 05:35:00
1:55 AM,64.4,62.6,94,30.00,5.0,Calm,Calm,-,N/A,,Clear,0,2013-09-09 05:55:00
2:15 AM,64.4,59.0,83,30.00,7.0,Calm,Calm,-,N/A,,Clear,0,2013-09-09 06:15:00
2:35 AM,64.4,64.4,100,30.00,5.0,Calm,Calm,-,N/A,,Clear,0,2013-09-09 06:35:00
2:55 AM,64.4,60.8,88,30.00,5.0,Calm,Calm,-,N/A,,Clear,0,2013-09-09 06:55:00
3:15 AM,62.6,60.8,94,30.00,5.0,Calm,Calm,-,N/A,,Clear,0,2013-09-09 07:15:00
3:35 AM,62.6,62.6,100,30.00,7.0,Calm,Calm,-,N/A,,Clear,0,2013-09-09 07:35:00
3:55 AM,62.6,62.6,100,30.00,7.0,Calm,Calm,-,N/A,,Clear,0,2013-09-09 07:55:00
4:15 AM,62.6,60.8,94,30.00,7.0,Calm,Calm,-,N/A,,Clear,0,2013-09-09 08:15:00
4:35 AM,60.8,60.8,100,30.00,5.0,Calm,Calm,-,N/A,,Clear,0,2013-09-09 08:35:00
4:55 AM,60.8,59.0,94,30.00,5.0,Calm,Calm,-,N/A,,Clear,0,2013-09-09 08:55:00
5:15 AM,60.8,60.8,100,30.01,5.0,Calm,Calm,-,N/A,,Clear,0,2013-09-09 09:15:00
5:35 AM,60.8,57.2,88,30.01,5.0,Calm,Calm,-,N/A,,Clear,0,2013-09-09 09:35:00
5:55 AM,60.8,60.8,100,30.01,5.0,Calm,Calm,-,N/A,,Clear,0,2013-09-09 09:55:00
6:15 AM,60.8,60.8,100,30.02,7.0,Calm,Calm,-,N/A,,Clear,0,2013-09-09 10:15:00
6:35 AM,60.8,59.0,94,30.02,5.0,Calm,Calm,-,N/A,,Clear,0,2013-09-09 10:35:00
6:55 AM,59.0,57.2,94,30.02,5.0,Calm,Calm,-,N/A,,Clear,0,2013-09-09 10:55:00
7:15 AM,59.0,59.0,100,30.03,5.0,Calm,Calm,-,N/A,,Scattered Clouds,0,2013-09-09 11:15:00
7:35 AM,59.0,59.0,100,30.04,4.0,Calm,Calm,-,N/A,,Scattered Clouds,0,2013-09-09 11:35:00
7:55 AM,59.0,59.0,100,30.05,5.0,Calm,Calm,-,N/A,,Clear,0,2013-09-09 11:55:00
8:15 AM,60.8,60.8,100,30.05,7.0,Calm,Calm,-,N/A,,Clear,0,2013-09-09 12:15:00
8:35 AM,62.6,62.6,100,30.05,7.0,Calm,Calm,-,N/A,,Clear,0,2013-09-09 12:35:00
8:55 AM,64.4,64.4,100,30.06,7.0,Calm,Calm,-,N/A,,Clear,0,2013-09-09 12:55:00
9:15 AM,68.0,66.2,94,30.06,10.0,Calm,Calm,-,N/A,,Clear,0,2013-09-09 13:15:00
9:35 AM,69.8,66.2,88,30.06,10.0,Calm,Calm,-,N/A,,Clear,0,2013-09-09 13:35:00
9:55 AM,71.6,66.2,83,30.07,10.0,Calm,Calm,-,N/A,,Clear,0,2013-09-09 13:55:00
10:15 AM,71.6,68.0,88,30.08,10.0,Calm,Calm,-,N/A,,Clear,0,2013-09-09 14:15:00
10:35 AM,73.4,68.0,83,30.08,10.0,Calm,Calm,-,N/A,,Clear,0,2013-09-09 14:35:00
10:55 AM,77.0,66.2,69,30.08,10.0,Calm,Calm,-,N/A,,Clear,0,2013-09-09 14:55:00
11:15 AM,78.8,68.0,69,30.09,10.0,Calm,Calm,-,N/A,,Clear,0,2013-09-09 15:15:00
11:35 AM,78.8,59.0,51,30.09,10.0,SSE,4.6,-,N/A,,Clear,150,2013-09-09 15:35:00
11:55 AM,80.6,60.8,51,30.09,10.0,SSW,5.8,-,N/A,,Scattered Clouds,210,2013-09-09 15:55:00
12:15 PM,80.6,66.2,61,30.09,10.0,SE,3.5,-,N/A,,Scattered Clouds,130,2013-09-09 16:15:00
12:35 PM,80.6,69.8,70,30.09,10.0,South,3.5,-,N/A,,Scattered Clouds,170,2013-09-09 16:35:00
12:55 PM,80.6,69.8,70,30.09,10.0,SSW,5.8,-,N/A,,Mostly Cloudy,210,2013-09-09 16:55:00
1:15 PM,80.6,71.6,74,30.09,10.0,Calm,Calm,-,N/A,,Mostly Cloudy,0,2013-09-09 17:15:00
1:35 PM,80.6,71.6,74,30.09,10.0,Calm,Calm,-,N/A,,Mostly Cloudy,0,2013-09-09 17:35:00
1:55 PM,82.4,69.8,66,30.09,10.0,SSE,4.6,-,N/A,,Mostly Cloudy,160,2013-09-09 17:55:00
2:15 PM,82.4,69.8,66,30.08,10.0,South,4.6,-,N/A,,Mostly Cloudy,190,2013-09-09 18:15:00
2:35 PM,84.2,69.8,62,30.08,10.0,Calm,Calm,-,N/A,,Mostly Cloudy,0,2013-09-09 18:35:00
2:55 PM,84.2,69.8,62,30.08,10.0,Calm,Calm,-,N/A,,Overcast,0,2013-09-09 18:55:00
3:15 PM,87.8,73.4,62,30.07,10.0,ENE,3.5,-,N/A,,Overcast,60,2013-09-09 19:15:00
3:35 PM,87.8,73.4,62,30.07,10.0,Calm,Calm,-,N/A,,Overcast,0,2013-09-09 19:35:00
3:55 PM,87.8,75.2,66,30.07,10.0,Calm,Calm,-,N/A,,Scattered Clouds,0,2013-09-09 19:55:00
4:15 PM,87.8,73.4,62,30.07,10.0,Calm,Calm,-,N/A,,Clear,0,2013-09-09 20:15:00
4:35 PM,89.6,73.4,59,30.07,10.0,ESE,3.5,-,N/A,,Scattered Clouds,110,2013-09-09 20:35:00
4:55 PM,87.8,73.4,62,30.07,10.0,ESE,3.5,-,N/A,,Mostly Cloudy,120,2013-09-09 20:55:00
5:15 PM,86.0,77.0,74,30.07,10.0,Calm,Calm,-,N/A,,Scattered Clouds,0,2013-09-09 21:15:00
5:35 PM,82.4,77.0,84,30.07,10.0,South,4.6,-,N/A,,Mostly Cloudy,180,2013-09-09 21:35:00
5:55 PM,82.4,75.2,79,30.08,10.0,SSE,5.8,-,N/A,,Mostly Cloudy,150,2013-09-09 21:55:00
6:15 PM,77.0,77.0,100,30.09,10.0,South,4.6,16.1,N/A,Thunderstorm,Scattered Clouds,170,2013-09-09 22:15:00
6:35 PM,77.0,75.2,94,30.09,10.0,South,6.9,-,N/A,,Scattered Clouds,190,2013-09-09 22:35:00
6:55 PM,77.0,73.4,89,30.08,10.0,South,6.9,-,N/A,Thunderstorm,Scattered Clouds,190,2013-09-09 22:55:00
7:15 PM,77.0,75.2,94,30.08,10.0,Calm,Calm,-,N/A,,Clear,0,2013-09-09 23:15:00
7:35 PM,75.2,75.2,100,30.09,10.0,Calm,Calm,-,N/A,,Clear,0,2013-09-09 23:35:00
7:55 PM,73.4,73.4,100,30.09,10.0,Calm,Calm,-,N/A,,Clear,0,2013-09-09 23:55:00
8:15 PM,71.6,71.6,100,30.10,10.0,Calm,Calm,-,N/A,,Clear,0,2013-09-10 00:15:00
8:35 PM,71.6,71.6,100,30.10,10.0,Calm,Calm,-,N/A,,Clear,0,2013-09-10 00:35:00
8:55 PM,69.8,69.8,100,30.11,7.0,Calm,Calm,-,N/A,,Clear,0,2013-09-10 00:55:00
9:15 PM,69.8,69.8,100,30.11,7.0,Calm,Calm,-,N/A,,Clear,0,2013-09-10 01:15:00
9:35 PM,68.0,68.0,100,30.12,7.0,Calm,Calm,-,N/A,,Clear,0,2013-09-10 01:35:00
9:55 PM,68.0,68.0,100,30.13,10.0,Calm,Calm,-,N/A,,Clear,0,2013-09-10 01:55:00
10:15 PM,68.0,68.0,100,30.13,7.0,Calm,Calm,-,N/A,,Clear,0,2013-09-10 02:15:00
10:35 PM,68.0,68.0,100,30.13,7.0,Calm,Calm,-,N/A,,Clear,0,2013-09-10 02:35:00
10:55 PM,68.0,68.0,100,30.14,7.0,Calm,Calm,-,N/A,,Clear,0,2013-09-10 02:55:00
11:15 PM,66.2,66.2,100,30.15,7.0,Calm,Calm,-,N/A,,Clear,0,2013-09-10 03:15:00
11:35 PM,66.2,66.2,100,30.15,7.0,Calm,Calm,-,N/A,,Clear,0,2013-09-10 03:35:00
11:55 PM,64.4,64.4,100,30.15,7.0,Calm,Calm,-,N/A,,Clear,0,2013-09-10 03:55:00